Regional Weather Roundup
Issued by NWS

Home | Current Version | Previous Version | Graphics & Text | Print | Product List | Glossary On
Versions: 1 2 3 4 5 6 7 8 9 10 11 12 13 14 15 16 17 18 19 20 21 22 23 24 25 26 27 28 29 30 31 32 33 34 35 36 37 38 39 40 41 42 43 44 45 46 47 48 49 50
310
ASUS43 KMKX 230421
RWRWI

WISCONSIN REGIONAL WEATHER ROUNDUP
NATIONAL WEATHER SERVICE MILWAUKEE/SULLIVAN WI
1100 PM CDT FRI SEP 22 2017

NOTE: "FAIR" INDICATES FEW OR NO CLOUDS BELOW 12,000 FEET WITH NO
SIGNIFICANT WEATHER AND/OR OBSTRUCTIONS TO VISIBILITY.

WIZ001-002-006>008-014>016-023>028-230500-
NORTHWEST WISCONSIN

CITY           SKY/WX    TMP DP  RH WIND       PRES   REMARKS
SUPERIOR ARPT  CLOUDY    61  61  99 CALM      29.80S
ASHLAND        CLEAR     80  67  64 S14G22    29.81S HX  82
HAYWARD        PTCLDY    77  67  71 S10       29.87R
SIREN          MOCLDY    82  64  55 S16G22    29.84R HX  83
CUMBERLAND     PTCLDY    73  63  68 S10       29.89S
RICE LAKE      PTCLDY    75  65  71 E7        29.91R
CHETEK         PTCLDY    77  67  72 MISG      29.90R
LADYSMITH      CLEAR     77  67  70 S7        29.93S
EAU CLAIRE     CLEAR     79  66  64 S9        29.89R HX  81
MENOMONIE      PTCLDY    80  65  60 S10G16    29.89R HX  81
NEW RICHMOND   PTCLDY    80  64  58 S14       29.87S HX  81
OSCEOLA        CLOUDY    82  66  58 S10G18    29.87S HX  83
$$

WIZ003>005-009-010-017-018-230500-
NORTH CENTRAL WISCONSIN

CITY           SKY/WX    TMP DP  RH WIND       PRES   REMARKS
MANITOWISH WTR CLEAR     70  70 100 S8        29.94S
ARBOR VITAE    CLEAR     72  66  82 S9        29.95F
WOODRUFF       CLEAR     72  66  82 S9        29.95F
RHINELANDER    CLEAR     71  67  87 S5        29.98F
EAGLE RIVER    CLEAR     67  66  96 S3        29.96F
LAND O LAKES   CLEAR     70  65  85 S7        29.97F
PHILLIPS       PTCLDY    75  68  78 S14       29.93S
TOMAHAWK       CLEAR     66  64  94 CALM      29.97F
MEDFORD        CLEAR     72  65  80 S9        29.96S
MERRILL        CLEAR     70  67  90 SE5       29.98S
$$

WIZ029-030-035-036-043>047-230500-
CENTRAL WISCONSIN

CITY           SKY/WX    TMP DP  RH WIND       PRES   REMARKS
WAUSAU         CLEAR     77  65  66 S13       29.96F
MOSINEE        CLEAR     70  64  83 S8        29.99F
MARSHFIELD     CLEAR     71  64  78 S7        29.97S
STEVENS POINT  CLEAR     74  64  69 S8        29.99F
WAUPACA        CLEAR     72  67  84 CALM      29.99F
WAUTOMA        CLEAR     69  66  90 CALM      30.00S
WISC RAPIDS    CLEAR     74  66  76 S5        29.99S
CAMP DOUGLAS   CLEAR     76  66  73 S5        29.97S
$$

WIZ011>013-019>022-031-037>040-048>050-230500-
NORTHEAST WISCONSIN

CITY           SKY/WX    TMP DP  RH WIND       PRES   REMARKS
ANTIGO         CLEAR     67  65  94 S8        30.00F
SHAWANO        CLEAR     69  66  93 CALM      29.98S
OCONTO         CLEAR     70  67  90 CALM      29.98S
STURGEON BAY   CLEAR     71  66  84 S10       30.00S
GREEN BAY      CLEAR     72  69  90 S5        29.99S
MANITOWOC      CLEAR     72  67  84 S8        30.01S
APPLETON       PTCLDY    73  64  73 S7        29.99S
CLINTONVILLE   CLEAR     72  64  78 S5        29.99S
OSHKOSH        CLEAR     72  68  87 S8        30.00S
$$

WIZ032>034-041-042-053>061-230500-
SOUTHWEST WISCONSIN

CITY           SKY/WX    TMP DP  RH WIND       PRES   REMARKS
LA CROSSE      CLEAR     81  68  64 S8        29.93R HX  84
SPARTA         CLEAR     80  66  63 S7        29.96S HX  82
VIROQUA        CLEAR     76  67  73 S8        29.99F
BOSCOBEL       CLEAR     77  66  68 S3        29.98R
PRAIRIE DU CHI CLEAR     80  64  58 SE6       29.96S HX  81
PLATTEVILLE    CLEAR     74  67  79 S7        30.02R
$$

WIZ056-057-062-063-064-067-068-230500-
SOUTH CENTRAL WISCONSIN

CITY           SKY/WX    TMP DP  RH WIND       PRES   REMARKS
REEDSBURG      CLEAR     76  65  69 S3        29.98F
BARABOO/DELLS  CLEAR     74  63  67 S3        30.00S
LONE ROCK      CLEAR     69  66  90 SE3       29.99S
MINERAL POINT  CLEAR     75  66  73 S6        30.02S
MADISON        CLEAR     76  65  68 S6        30.01S
MIDDLETON      CLEAR     74  65  73 CALM      30.02S
WATERTOWN      CLEAR     70  64  80 CALM      30.02S
MONROE         CLEAR     72  63  73 S8        30.03S
JANESVILLE     CLEAR     72  61  68 CALM      30.02R
$$

WIZ051-052-058>065-066-070>072-230500-
SOUTHEAST WISCONSIN

CITY           SKY/WX    TMP DP  RH WIND       PRES   REMARKS
MILWAUKEE      CLEAR     78  68  71 S8        30.03S HX  80
WAUKESHA       CLEAR     73  63  68 S5        30.05R
MILWAUKEE/TIMM CLEAR     77  63  61 S7        30.04R
RACINE         CLEAR     78  68  71 S8        30.05S HX  80
BURLINGTON     CLEAR     66  66 100 CALM      30.04S
KENOSHA        CLEAR     75  66  73 S5        30.04S
FOND DU LAC    CLEAR     71  65  81 S7        30.01S
SHEBOYGAN      CLEAR     64  64 100 CALM      30.02S FOG
WEST BEND        N/A     68  66  94 CALM      30.04R
JUNEAU         CLEAR     70  64  80 SE3       30.03F
$$

LSZ147-162-230500-
LAKE SUPERIOR

STATION/POSITION TIME  TEMP    WIND        PRES    WAVE
                       AIR SEA DIR/SP/G            HT/PER
                 (UTC) (F)     (DEG/KT/KT) (MB)    (FT/S)
W MID LAKE BUOY  0350   61 54  120/ 10/ 10 1008.8F   1/ 4
DEVILS ISLAND    0400   63     110/  5/  6 1008.7F
SAXON HARBOR     0346   82     200/ 14/ 25 1008.5F
$$

LMZ867-665-643>646-230500-
LAKE MICHIGAN

STATION/POSITION TIME  TEMP    WIND        PRES    WAVE
                       AIR SEA DIR/SP/G            HT/PER
                 (UTC) (F)     (DEG/KT/KT) (MB)    (FT/S)
S GREEN BAY BUOY 0400   70 67  190/  8/ 10 1015.0
N MID LAKE BUOY  0350   69 66  180/  8/ 10 1015.9F   2/ 4
NORTHPORT PIER   0340   72     160/  8/ 15 1015.2S
KEWAUNEE LAKESHO 0354   64     180/  6/  7 1015.3R
SHEBOYGAN LAKESH 0400   72     190/  8/  9 1016.0F
PORT WASHINGTON  0340   71      CALM  /  1 1017.6R
ATWATER BUOY     0309   71 65  170/  8/  8 1016.7S
MILWAUKEE LAKESH 0400   74     130/  2/  3   N/A
S MID LAKE BUOY  0350   73 70  140/  8/  8 1016.9S   0
KENOSHA   LAKESH 0400   78     190/  8/ 11 1016.6
$$

TC  - TEMPERATURE IN CELSIUS
VSB - VISIBILITY IN STATUTE MILES
WCI - WIND CHILL INDEX
HX  - HEAT INDEX





USA.gov is the U.S. government's official web portal to all federal, state and local government web resources and services.